Location: Unspecified
(0.0000°N, 0.0000°E)
Time: 07:06:19
(UTC+00:00)

A-11 Canister half - Pass Details

Date: 20 December 2018
Orbit: 1516 x 1684 km, 47.2° (Epoch: 15 June)

Event Time Altitude Azimuth Distance (km) Brightness Sun altitude
Rises 22:11:21 0° 307° (NW) 4,923 11.7 -55.1°
Enters shadow 22:12:05 - 306° (NW) 4,703 11.6 -55.2°
Exits shadow 22:35:09 - 156° (SSE) 4,276 11.5 -59.1°
Sets 22:37:06 0° 152° (SSE) 4,859 11.8 -59.5°
